Regional Weather Roundup
Issued by NWS

Home | Current Version | Previous Version | Graphics & Text | Print | Product List | Glossary On
Versions: 1 2 3 4 5 6 7 8 9 10 11 12 13 14 15 16 17 18 19 20 21 22 23 24 25 26 27 28 29 30 31 32 33 34 35 36 37 38 39 40 41 42 43 44 45 46 47 48 49 50
000
ASUS43 KBIS 272110
RWRND

NORTH DAKOTA REGIONAL WEATHER ROUNDUP
NATIONAL WEATHER SERVICE BISMARCK ND
300 PM CST SAT DEC 27 2014

NOTE: "FAIR" INDICATES FEW OR NO CLOUDS BELOW 12,000 FEET WITH NO
SIGNIFICANT WEATHER AND/OR OBSTRUCTIONS TO VISIBILITY.


NDZ001>003-009>011-017-272200-
NORTHWEST NORTH DAKOTA

CITY           SKY/WX    TMP DP  RH WIND       PRES   REMARKS
WILLISTON      CLOUDY    25  16  68 SW9       29.97F WCI  15
MINOT          MOSUNNY   24  15  68 W12       29.94S WCI  13
MINOT AFB      MOSUNNY   23  19  84 NW12      29.94S WCI  11
$$

NDZ018>021-031>035-040>046-272200-
SOUTHWEST NORTH DAKOTA

CITY           SKY/WX    TMP DP  RH WIND       PRES   REMARKS
BISMARCK       CLOUDY    30  20  66 W13       29.98F WCI  20
DICKINSON      PTSUNNY   25  16  68 W16       29.94S WCI  12
GARRISON         N/A     25  17  72 NW18      29.94S WCI  11
HETTINGER ARPT PTSUNNY   28  16  60 W23       29.98R WCI  14
$$

NDZ004>008-012>016-024-026-027-054-272200-
NORTHEAST NORTH DAKOTA

CITY           SKY/WX    TMP DP  RH WIND       PRES   REMARKS
GRAND FORKS    CLOUDY    20  14  77 W5        30.02S WCI  13
GRND FRKS AFB  PTSUNNY   20  17  88 NW3       30.01F
DEVILS LAKE    CLOUDY    21  14  73 SW8       29.95S WCI  12
$$

NDZ022-023-025-028>030-036>039-047>053-272200-
SOUTHEAST NORTH DAKOTA

CITY           SKY/WX    TMP DP  RH WIND       PRES   REMARKS
FARGO          CLOUDY    24  17  74 SW9       30.04S WCI  14
JAMESTOWN      CLOUDY    23  17  78 SW6       29.98F WCI  16
$$




USA.gov is the U.S. government's official web portal to all federal, state and local government web resources and services.